This is the latest recevied weather packets stored in our database for station/object N0THY. If no packets are shown the sender has not sent any weather packets the latest 10 day(s).
| Time | Temp. | Humidity | Pressure | Rain* | Wind** | Luminosity | Snow |
|---|---|---|---|---|---|---|---|
| 1777463153 | 3.33° C | 76% | 1019.2 hPa | 0 mm | - | - | - |
| 1777462250 | 3.33° C | 75% | 1019.1 hPa | 0.25 mm | - | - | - |
| 1777461347 | 3.33° C | 76% | 1019 hPa | 0.25 mm | - | - | - |
| 1777460444 | 2.78° C | 76% | 1019.1 hPa | 0.25 mm | - | - | - |
| 1777459542 | 2.78° C | 76% | 1018.9 hPa | 0.25 mm | - | - | - |
| 1777458639 | 2.78° C | 77% | 1019 hPa | 0.25 mm | - | - | - |
| 1777457736 | 2.78° C | 78% | 1019 hPa | 0.25 mm | - | - | - |
| 1777456833 | 2.78° C | 80% | 1019.3 hPa | 0.25 mm | - | - | - |
| 1777455930 | 2.22° C | 80% | 1019.2 hPa | 0.25 mm | - | - | - |
| 1777455027 | 2.78° C | 79% | 1019.1 hPa | 0.25 mm | - | - | - |
| 1777454124 | 3.33° C | 79% | 1019.2 hPa | 0.25 mm | - | - | - |
| 1777453221 | 3.89° C | 78% | 1019.1 hPa | 0.25 mm | - | - | - |
| 1777452318 | 3.89° C | 76% | 1019.2 hPa | 0.25 mm | - | - | - |
| 1777451415 | 3.89° C | 76% | 1019.5 hPa | 0.25 mm | - | - | - |
| 1777449609 | 3.89° C | 77% | 1019.7 hPa | 0.25 mm | - | - | - |
| 1777448706 | 3.33° C | 77% | 1020 hPa | 0.25 mm | - | - | - |
| 1777447803 | 3.33° C | 78% | 1020.1 hPa | 0.25 mm | - | - | - |
| 1777446900 | 3.33° C | 78% | 1020.2 hPa | 0.25 mm | - | - | - |
| 1777445997 | 3.33° C | 78% | 1020.1 hPa | 0.25 mm | - | - | - |
| 1777445095 | 3.33° C | 78% | 1020.1 hPa | 0.25 mm | - | - | - |
| 1777444192 | 3.33° C | 77% | 1020.3 hPa | 0.25 mm | - | - | - |
| 1777443289 | 3.33° C | 77% | 1020.3 hPa | 0.25 mm | - | - | - |
| 1777442386 | 3.33° C | 76% | 1020.2 hPa | 0.25 mm | - | - | - |
| 1777441483 | 3.89° C | 76% | 1020.1 hPa | 0.25 mm | - | - | - |
| 1777440580 | 4.44° C | 74% | 1020.1 hPa | 0.25 mm | - | - | - |
* Rain since midnight (hover to see other rain measurements)
** Current wind speed in m/s (hover to see current wind gust speed)